User: anonymous
Location: Unspecified
(0.0000°N, 0.0000°E)
Time: 21:38:54
(UTC+00:00)
Language:

Tiangong 1 - Orbit

View from above orbital plane
View from above orbital plane
View from above satellite
View from above satellite

Ground track
Ground track

The orbit data is extracted from the following two-line orbital elements,

1 37820U 11053A   14205.16558269  .00010460  00000-0  11110-3 0  2311
2 37820 042.7716 087.9876 0004527 231.4529 265.1044 15.64132191161865
Epoch (UTC): 24 July 2014 03:58:26
Eccentricity: 0.0004527
inclination: 42.7716°
perigee height: 372 km
apogee height: 379 km
right ascension of ascending node: 87.9876°
argument of perigee: 231.4529°
revolutions per day: 15.64132191
mean anomaly at epoch: 265.1044°
orbit number at epoch: 16186

The dashed part of the orbit path shows where the satellite is in the earth's shadow,  

DLR